Flag for U.S.A. Weather past 2 weeks in Butte, Montana, U.S.A.

Now
49 °F

Mostly cloudy.


Feels Like: 45 °F
Forecast: 40 / 63 °F
Wind: 10 mph from Northwest

Location: Mooney Airport

Current Time: May 28, 2015 at 6:37:30 PM

Latest Report: May 28, 2015 at 5:53 PM


Visibility: 10 mi

Pressure: 30.18 "Hg

Humidity: 80%

Dew point: 43 °F

Location of ButteLocation

Historic Weather in Butte — Graph

°F

Butte temperature yesterday

Maximum temperature yesterday: 58 °F (at 3:53 PM)
Minimum temperature yesterday: 45 °F (at 5:53 AM)
Average temperature yesterday: 50 °F

Past Weeks' High & Low Weather Summary

 TemperatureHumidityPressure
High66 °F (May 25, 2:53 PM)93% (May 14, 10:53 PM)30.31 "Hg (May 14, 10:53 PM)
Low34 °F (May 18, 4:02 AM)25% (May 25, 1:53 PM)29.59 "Hg (May 16, 2:53 AM)
Average48 °F69%29.96 "Hg
* Reported May 13 4:53 PM — May 28 4:53 PM, Butte, Weather by CustomWeather, © 2015

Note: Actual official high and low records may vary slightly from our data, if they occured in-between our weather recording intervals... More about our weather records

Advertising

Butte weather history for previous 24 hours

 ConditionsComfort  
Time TempWeatherWind HumidityBarometerVisibility
4:53 PM
Thu, May 28
53 °FLight rain. Mostly cloudy.9 mph74%30.15 "Hg10 mi
3:53 PM56 °FPartly sunny.7 mph60%30.13 "Hg10 mi
2:53 PM51 °FThundershowers. More clouds than sun.14 mph74%30.14 "Hg10 mi
1:53 PM60 °FPartly sunny.12 mph47%30.07 "Hg10 mi
12:53 PM58 °FBroken clouds.7 mph56%30.08 "Hg10 mi
11:53 AM55 °FMore clouds than sun.6 mph62%30.09 "Hg10 mi
11:02 AM51 °FLight rain. Mostly cloudy.3 mph74%30.16 "Hg10 mi
10:53 AM52 °FCloudy.6 mph72%30.09 "Hg10 mi
9:53 AM49 °FOvercast.5 mph80%30.09 "Hg10 mi
8:53 AM46 °FOvercast.No wind86%30.09 "Hg10 mi
7:53 AM45 °FOvercast.No wind90%30.08 "Hg10 mi
6:53 AM44 °FMostly cloudy.No wind89%30.07 "Hg10 mi
5:53 AM43 °FMostly cloudy.No wind93%30.06 "Hg10 mi
4:53 AM44 °FOvercast.3 mph93%30.04 "Hg10 mi
3:53 AM45 °FMostly cloudy.5 mph86%30.02 "Hg10 mi
2:53 AM45 °FMostly cloudy.No wind86%30.03 "Hg10 mi
1:53 AM45 °FOvercast.5 mph90%30.03 "Hg10 mi
12:53 AM46 °FPassing clouds.No wind83%30.02 "Hg10 mi
11:53 PM
Wed, May 27
47 °FPassing clouds.No wind77%30.03 "Hg10 mi
10:53 PM48 °FOvercast.No wind74%30.01 "Hg10 mi
9:53 PM50 °FPartly sunny.5 mph71%30.01 "Hg10 mi
8:53 PM50 °FLight rain. More clouds than sun.No wind74%30.00 "Hg10 mi
7:53 PM51 °FSunny.3 mph71%29.98 "Hg10 mi
6:53 PM51 °FPartly sunny.8 mph71%29.98 "Hg10 mi
Weather by CustomWeather, © 2015

See weather overviewHow to use our weather pages